Regional Weather Roundup
Issued by NWS

Home | Current Version | Previous Version | Text Only | Print | Product List | Glossary On
Versions: 1 2 3 4 5 6 7 8 9 10 11 12 13 14 15 16 17 18 19 20 21 22 23 24 25 26 27 28 29 30 31 32 33 34 35 36 37 38 39 40 41 42 43 44 45 46 47 48 49 50
000
ASUS45 KBOI 031910
RWRID
WEATHER ROUNDUP FOR IDAHO
NATIONAL WEATHER SERVICE BOISE ID
100 PM MDT SUN MAY 03 2015

NOTE: "FAIR" INDICATES FEW OR NO CLOUDS BELOW 12000 FEET
WITH NO SIGNIFICANT WEATHER AND/OR OBSTRUCTIONS TO VISIBILITY

IDZ012-014-032000-
SOUTHWEST IDAHO


CITY           SKY/WX    TMP DP  RH WIND       PRES   REMARKS
BOISE          SUNNY     69  34  27 NW6       29.89F
CALDWELL       SUNNY     70  36  28 NW9       29.90F
MOUNTAIN HOME  MOSUNNY   71  29  21 N7        29.88F
$$

IDZ016-017-032000-
SOUTHCENTRAL IDAHO


CITY           SKY/WX    TMP DP  RH WIND       PRES   REMARKS
BURLEY         SUNNY     72  36  26 VRB5      29.89F
JEROME         SUNNY     68  31  25 S6        29.92F
TWIN FALLS     SUNNY     71  34  25 VRB6      29.91F
$$

IDZ019>023-032000-
SOUTHEAST IDAHO


CITY           SKY/WX    TMP DP  RH WIND       PRES   REMARKS
IDAHO FALLS    PTSUNNY   70  33  25 VRB5      29.94F
POCATELLO      MOSUNNY   73  32  22 VRB3G18   29.93F
REXBURG        PTSUNNY   68  34  28 S13       29.94F
$$

IDZ006-010-011-018-031-032-032000-
CENTRAL IDAHO MOUNTAINS


CITY           SKY/WX    TMP DP  RH WIND       PRES   REMARKS
MCCALL         SUNNY     64  30  27 VRB6      29.93F
HAILEY         PTSUNNY   64  36  34 SE12      29.97F
STANLEY          N/A     62  27  26 SE8       30.00F
SALMON         MOSUNNY   61  30  31 N5        29.91F
CHALLIS        PTSUNNY   63  27  25 N5        29.92F
$$

IDZ002-004-006-007-026-032000-
NORTHERN IDAHO


CITY           SKY/WX    TMP DP  RH WIND       PRES   REMARKS
LEWISTON       SUNNY     66  32  28 VRB3      29.95F
LOWELL           N/A     68  33  27 S5        29.91F
COEUR D`ALENE  SUNNY     63  27  25 N8        30.00F
MULLAN PASS    SUNNY     48  14  25 VRB3      30.02S
$$


USA.gov is the U.S. government's official web portal to all federal, state and local government web resources and services.